Terug naar catalogus

FENGYUN 1C DEB

ActiefPO
NORAD 32150·DEBRIS·🇨🇳 China

Gelanceerd May 10, 1999 vanaf Taiyuan Satellite Launch Center

Loading…

Volgende Passages (komende 24 uur)

TLE

VersSource: Space-Track

Epoch: Sep 13, 2026, 08:59 UTC

1 32150U 99025CSU 26256.37439638  .00000434  00000-0  83803-4 0  9997
2 32150  99.1602 313.9524 0168958 313.5471  45.1796 14.61201039 16958

Volg FENGYUN 1C DEB in realtime met AllMySat

Download on the App Store